STARLINK-2751 (48685 NORAD) Tracking and Keplerian Element Data

This shows tracking and keplerian element data for the satellite.

Feedback or suggestion? Click here.




ElementValue
Catalog48685
NameSTARLINK-2751
Epoch Orbit177
Epoch Day170.58334491
Epoch Year2021
RAAN306.2493
Inclination53.0481
Eccentricity0.0001481
Argument of Perigee40.0883
Mean Anonmoly90.4392
Mean Motion15.73231091
Decay Rate-7.566E-05
L11 48685U 21044AZ 21170.58334491 -.00007566 00000-0 -49457-4 0 9999
L22 48685 53.0481 306.2493 0001481 40.0883 90.4392 15.73231091 1772

Live tracking and technical data element details for STARLINK-2751 (NORAD 48685). STARLINK-2751 can be tracked NOW for your location showing map with azimuth and elevation plus other details from your city location.

Track the satellite on the map from your city or location and see movement details for azimuth, elevation, latitude, longitude, range, height, and movement on the map or in text.







IsCatalogInMostPopularTable: catalog: 48685, numindb: 2
Update: records affected: 1



GetName: 48685 STARLINK-2751

Hit Count: updated at: Mon, 21 Jun 2021 03:11:33 GMT